Notice: A non well formed numeric value encountered in /home/www/horsholmvejr.dk/weather28/scriptsWD/tagsWD.php on line 282

Notice: A non well formed numeric value encountered in /home/www/horsholmvejr.dk/weather28/scriptsWD/tagsWD.php on line 283
Welcome to our new website - Welkom op onze vernieuwde website - Bienvenue sur notre nouveau site web - Willkommen auf unserer neuen Website
Check our progress frequently. Prüfen Sie unsere Fortschritte regelmäßig. Consultez notre progression fréquemment. Komt u straks nog eens terug


Hej. Vi har købt ny vejrstation, og er ved at bygge en helt ny vejrside.
Kom snart tilbage og følg udviklingen.
Du kan også komme med kommentarer eller evt. ønsker via "Kontakt" i bunden.



Webcam more information Webcam


Rain radar more information rain snow radar


Visit our other weather sites:

Template documentation
and downloads

And another site



Select another period ( hide this area )

Units Period Custom range Directly to
Metric English Both
Daily Weekly Monthly Yearly
use both date-selectors for a custom range
previous Day
With this date

WeatherUnderground graphs for this period ( click here )


Daily Summary for Tuesday 25 February 2020
Time Temp. ( °C ) Dew pt. ( °C ) Wind ( km/h ) from Gust ( km/h ) Pressure ( hPa ) Humid.( % ) Rainrate ( cm ) Solar ( W/m2 )
High6,6 3,4 35,2 SW ( 937/3201 ) 45,1 997,2 92 3,00 455
Average4,4 2,2 17,3 SW #54/185 28,5 988,9 86 2,10 123 #99/185
Low2,2 0,8 1,4   6,4 982,3 74 -  
Daily Tabular details for Tuesday 25 February 2020
Time Temp. ( °C ) Dew pt. ( °C ) Wind ( km/h ) from Gust ( km/h ) Pressure ( hPa ) Humid.( % ) Rainrate ( cm ) Solar ( W/m2 )
00:00 2,9 1,3 24,1 SE 30,6 997,2 89 - -
00:05 2,9 1,4 16,3 ENE 19,3 996,8 90 - -
00:10 3,0 1,4 16,3 SE 24,1 996,8 89 - -
00:15 3,0 1,4 22,7 SSE 32,2 996,5 89 0,30 -
00:20 3,0 1,4 9,7 SSE 27,4 996,5 89 0,30 -
00:25 3,1 1,5 11,1 ESE 30,6 996,2 89 0,30 -
00:30 3,1 1,5 13,0 SSE 24,1 995,8 89 0,30 -
00:35 3,0 1,4 28,8 SE 40,2 995,5 89 0,30 -
00:40 3,0 1,4 6,4 ESE 32,2 995,5 89 0,50 -
00:45 3,0 1,4 13,0 SE 29,0 995,5 89 0,50 -
00:50 3,0 1,4 14,3 SE 41,8 995,5 89 0,50 -
00:55 3,0 1,4 20,9 SE 29,0 995,5 89 0,50 -
01:00 3,1 1,5 17,7 SSE 25,7 995,5 89 0,50 -
01:05 3,1 1,5 9,7 East 38,6 995,1 89 0,50 -
01:10 3,0 1,4 22,7 SSE 33,8 994,8 89 0,50 -
01:15 3,0 1,4 17,7 SE 37,0 994,5 89 0,50 -
01:20 2,9 1,3 14,3 SE 27,4 994,5 89 0,80 -
01:25 2,9 1,3 16,3 ESE 33,8 994,1 89 1,00 -
01:30 2,9 1,4 14,3 SE 45,1 993,8 90 1,30 -
01:35 2,8 1,3 14,3 ESE 24,1 993,8 90 1,30 -
01:40 2,8 1,3 19,5 SSE 20,9 993,5 90 1,50 -
01:45 2,8 1,3 28,8 SSE 43,4 993,5 90 1,50 -
01:50 2,7 1,2 17,7 SE 35,4 993,1 90 1,50 -
01:55 2,7 1,2 16,3 SE 32,2 993,1 90 1,80 -
02:00 2,6 1,1 14,3 SSE 35,4 993,1 90 2,00 -
02:05 2,5 1,0 35,2 SSE 38,6 993,1 90 2,00 -
02:10 2,5 1,0 6,4 ESE 22,5 993,1 90 2,00 -
02:15 2,5 1,0 13,0 SE 29,0 992,4 90 2,30 -
02:20 2,4 0,9 6,4 East 27,4 992,8 90 2,30 -
02:25 2,5 1,0 16,3 SE 29,0 992,8 90 2,30 -
02:30 2,4 0,9 32,0 SE 43,4 992,4 90 2,30 -
02:35 2,3 0,8 20,9 South 38,6 992,4 90 2,50 -
02:40 2,3 0,8 11,1 South 40,2 992,1 90 2,80 -
02:45 2,2 0,9 16,3 SE 30,6 992,1 91 2,80 -
02:50 2,3 0,8 11,1 SE 40,2 991,4 90 3,00 -
02:55 2,3 0,8 27,4 SSE 32,2 991,4 90 3,00 -
03:00 2,3 1,0 16,3 SE 41,8 991,4 91 3,00 -
03:05 2,4 1,1 6,4 SE 35,4 991,4 91 2,80 -
03:10 2,5 1,2 6,4 SE 25,7 991,1 91 2,80 -
03:15 2,5 1,2 7,9 SSE 22,5 991,1 91 2,50 -
03:20 2,6 1,3 25,9 SE 40,2 990,7 91 2,50 -
03:25 2,7 1,4 22,7 South 25,7 990,7 91 2,50 -
03:30 2,8 1,5 13,0 SE 30,6 990,4 91 2,30 -
03:35 2,9 1,6 19,5 SSE 27,4 990,4 91 2,00 -
03:40 3,0 1,7 17,7 SE 24,1 989,7 91 1,50 -
03:45 3,1 1,9 14,3 SSW 29,0 989,7 92 1,50 -
03:50 3,2 1,9 9,7 SW 12,9 990,1 91 1,30 -
03:55 3,2 1,9 9,7 SW 12,9 990,1 91 1,00 -
04:00 3,2 1,9 4,7 SSW 6,4 989,7 91 0,80 -
04:05 3,2 1,9 7,9 SSE 14,5 989,7 91 0,80 -
04:10 3,3 2,1 11,1 SSE 17,7 989,4 92 0,80 -
04:15 3,4 2,2 14,3 SSE 19,3 989,1 92 0,50 -
04:20 3,4 2,2 9,7 SSE 16,1 989,1 92 0,50 -
04:25 3,6 2,4 1,4 South 9,7 989,1 92 0,30 -
04:30 3,6 2,4 11,1 South 12,9 989,1 92 0,30 -
04:35 3,7 2,5 7,9 SSW 17,7 989,1 92 0,30 -
04:40 3,7 2,5 7,9 SW 16,1 988,7 92 0,30 -
04:45 3,8 2,6 11,1 SW 17,7 988,7 92 0,30 -
04:50 4,0 2,8 13,0 SSW 22,5 988,7 92 0,30 -
04:55 4,1 2,9 11,1 SSW 20,9 988,4 92 0,30 -
05:00 4,2 3,0 11,1 SSW 17,7 988,4 92 0,30 -
05:05 4,2 3,0 13,0 SSW 22,5 988,4 92 0,30 -
05:10 4,3 3,1 9,7 SW 20,9 988,4 92 0,30 -
05:15 4,3 3,1 14,3 SSW 19,3 988,4 92 0,30 -
05:20 4,3 3,1 14,3 SW 25,7 988,4 92 0,30 -
05:25 4,4 3,2 13,0 SSW 25,7 988,4 92 0,30 -
05:30 4,4 3,2 16,3 WSW 29,0 988,4 92 0,30 -
05:35 4,4 3,2 24,1 WSW 24,1 988,7 92 - -
05:40 4,6 3,4 19,5 SW 20,9 988,4 92 - -
05:45 4,6 3,4 20,9 SW 33,8 988,4 92 - -
05:50 4,6 3,4 24,1 SW 25,7 988,4 92 - -
05:55 4,6 3,4 19,5 SW 29,0 988,4 92 - -
06:00 4,6 3,3 27,4 WSW 27,4 988,4 91 - -
06:05 4,6 3,3 27,4 SW 33,8 988,4 91 - -
06:10 4,6 3,3 22,7 WSW 32,2 988,4 91 - -
06:15 4,6 3,3 14,3 WSW 24,1 988,4 91 - -
06:20 4,6 3,3 11,1 SW 27,4 988,4 91 - -
06:25 4,5 3,2 20,9 SW 30,6 988,4 91 - -
06:30 4,6 3,1 17,7 SSW 22,5 988,4 90 - -
06:35 4,6 3,1 17,7 SSW 27,4 988,4 90 - -
06:40 4,6 3,1 24,1 WSW 27,4 988,4 90 - -
06:45 4,5 3,0 11,1 WSW 33,8 988,4 90 - -
06:50 4,5 2,8 22,7 WSW 27,4 988,7 89 - -
06:55 4,4 2,7 16,3 SW 20,9 988,4 89 - -
07:00 4,4 2,7 9,7 WSW 30,6 988,7 89 - -
07:05 4,4 2,7 24,1 WSW 30,6 988,7 89 - -
07:10 4,3 2,5 16,3 WSW 29,0 988,7 88 - 5
07:15 4,3 2,5 16,3 West 33,8 988,7 88 - 5
07:20 4,4 2,6 14,3 SW 32,2 988,7 88 - 7
07:25 4,4 2,6 16,3 SW 24,1 988,7 88 - 7
07:30 4,4 2,6 14,3 WSW 25,7 988,4 88 - 11
07:35 4,4 2,6 27,4 SW 30,6 988,7 88 - 16
07:40 4,4 2,4 27,4 SSW 27,4 988,7 87 - 19
07:45 4,4 2,4 13,0 WSW 35,4 988,7 87 - 33
07:50 4,5 2,4 19,5 WSW 33,8 988,7 86 - 40
07:55 4,6 2,5 16,3 SW 35,4 988,7 86 - 30
08:00 4,6 2,5 7,9 SW 32,2 988,4 86 - 39
08:05 4,6 2,3 16,3 West 25,7 988,4 85 - 37
08:10 4,6 2,3 25,9 WSW 27,4 988,4 85 - 49
08:15 4,6 2,3 16,3 SW 25,7 988,4 85 - 54
08:20 4,6 2,3 13,0 WSW 25,7 988,4 85 - 67
08:25 4,6 2,3 11,1 SW 27,4 988,4 85 - 56
08:30 4,6 2,3 14,3 WSW 25,7 988,4 85 - 72
08:35 4,7 2,4 19,5 West 20,9 988,4 85 - 113
08:40 4,9 2,6 9,7 SW 22,5 988,4 85 - 148
08:45 4,9 2,4 19,5 SW 30,6 988,4 84 - 81
08:50 4,9 2,4 14,3 SW 24,1 988,4 84 - 127
08:55 4,9 2,4 20,9 SSW 30,6 988,4 84 - 72
09:00 4,9 2,4 20,9 SSW 25,7 988,4 84 - 114
09:05 4,9 2,3 20,9 SW 29,0 988,4 83 - 79
09:10 4,9 2,3 16,3 West 27,4 988,4 83 - 86
09:15 4,9 2,3 9,7 WSW 24,1 988,0 83 - 77
09:20 4,9 2,3 24,1 SSW 29,0 988,0 83 - 62
09:25 4,9 2,3 13,0 WSW 24,1 988,4 83 - 46
09:30 4,9 2,3 14,3 WSW 29,0 988,0 83 - 76
09:35 5,1 2,5 14,3 SSW 24,1 988,0 83 - 206
09:40 5,2 2,2 19,5 WSW 27,4 988,0 81 - 269
09:45 5,4 2,4 11,1 SSW 25,7 988,0 81 - 135
09:50 5,5 2,5 30,6 WSW 30,6 988,0 81 - 128
09:55 5,4 2,4 13,0 SW 24,1 987,7 81 - 127
10:00 5,4 2,4 19,5 SW 33,8 988,0 81 - 135
10:05 5,5 2,5 30,6 SW 30,6 988,0 81 - 269
10:10 5,6 2,4 19,5 WSW 30,6 987,7 80 - 213
10:15 5,6 2,4 20,9 WSW 27,4 987,7 80 - 186
10:20 5,6 2,4 19,5 SW 27,4 987,7 80 - 186
10:25 5,6 2,6 24,1 South 30,6 987,7 81 - 167
10:30 5,5 2,3 22,7 SW 27,4 987,7 80 - 192
10:35 5,5 2,3 20,9 WSW 35,4 987,7 80 - 91
10:40 5,3 2,1 24,1 SW 37,0 987,4 80 - 123
10:45 5,3 2,1 22,7 SW 32,2 987,4 80 - 167
10:50 5,4 2,2 30,6 SW 32,2 987,4 80 - 125
10:55 5,6 2,2 16,3 SSW 25,7 987,4 79 - 190
11:00 5,9 2,4 28,8 WSW 43,4 987,4 78 - 455
11:05 5,7 2,2 25,9 WSW 33,8 987,4 78 - 142
11:10 5,6 2,1 20,9 WSW 41,8 987,4 78 - 160
11:15 5,8 2,3 17,7 WSW 30,6 987,4 78 - 329
11:20 6,2 2,5 19,5 WSW 24,1 987,4 77 - 193
11:25 6,1 2,4 22,7 WSW 27,4 987,4 77 - 130
11:30 5,9 2,2 32,0 WSW 41,8 987,4 77 - 199
11:35 5,8 2,3 24,1 WSW 32,2 987,4 78 - 243
11:40 5,8 2,3 9,7 SW 40,2 987,4 78 - 123
11:45 5,7 2,5 16,3 SW 29,0 987,0 80 - 134
11:50 5,4 2,6 9,7 SW 32,2 987,0 82 - 174
11:55 5,4 2,7 11,1 SSW 17,7 987,0 83 - 139
12:00 5,6 2,9 24,1 SSW 24,1 987,0 83 - 262
12:05 5,9 3,1 13,0 WSW 24,1 987,0 82 - 422
12:10 6,1 2,6 22,7 SW 30,6 987,0 78 - 127
12:15 6,1 2,4 13,0 SW 30,6 987,0 77 - 183
12:20 6,3 2,4 27,4 SSW 40,2 986,7 76 - 357
12:25 6,6 2,3 14,3 SSW 25,7 986,7 74 - 158
12:30 6,4 2,3 28,8 SW 29,0 986,7 75 - 127
12:35 6,1 2,2 17,7 SSW 40,2 986,7 76 - 98
12:40 5,6 2,2 25,9 SW 37,0 986,3 79 - 63
12:45 5,2 2,4 11,1 SW 27,4 986,3 82 0,30 120
12:50 4,9 2,4 14,3 WSW 20,9 986,3 84 0,30 141
12:55 4,9 2,4 11,1 SW 24,1 986,3 84 0,30 102
13:00 5,1 2,6 9,7 SW 16,1 986,0 84 0,30 144
13:05 5,3 2,8 13,0 SW 19,3 986,0 84 0,30 123
13:10 5,3 2,6 9,7 SW 14,5 985,7 83 0,30 26
13:15 5,3 2,6 24,1 West 32,2 986,0 83 0,50 39
13:20 5,1 2,6 9,7 SSW 24,1 985,7 84 0,50 114
13:25 5,4 2,9 9,7 SSW 20,9 985,7 84 0,50 209
13:30 5,6 2,8 20,9 South 40,2 985,3 82 0,50 84
13:35 5,6 2,6 33,8 SW 45,1 985,3 81 0,50 46
13:40 5,1 2,5 13,0 SW 25,7 985,3 83 0,80 288
13:45 5,3 3,0 22,7 SSW 38,6 985,0 85 0,50 218
13:50 5,7 3,2 11,1 SW 33,8 985,0 84 0,50 378
13:55 5,8 3,0 19,5 SW 20,9 984,6 82 0,50 199
14:00 5,8 2,8 25,9 SW 25,7 984,6 81 0,50 158
14:05 5,8 2,8 27,4 SSW 35,4 984,6 81 0,50 76
14:10 5,5 2,5 14,3 WSW 32,2 984,6 81 0,50 44
14:15 5,2 2,5 17,7 SW 30,6 984,6 83 0,50 30
14:20 4,9 2,4 16,3 West 25,7 984,6 84 0,50 88
14:25 4,9 2,9 20,9 SSW 27,4 984,6 87 0,80 153
14:30 4,9 2,8 19,5 South 29,0 984,3 86 0,80 181
14:35 5,2 3,1 13,0 SSW 30,6 984,0 86 0,50 125
14:40 5,2 2,9 24,1 SW 33,8 984,0 85 0,50 76
14:45 5,1 2,8 22,7 South 27,4 984,0 85 0,50 26
14:50 4,9 2,6 9,7 SSW 33,8 983,6 85 0,50 35
14:55 4,8 2,5 24,1 SW 32,2 983,6 85 0,50 49
15:00 4,5 2,4 7,9 SW 24,1 983,3 86 1,30 14
15:05 4,2 2,1 14,3 West 20,9 983,3 86 2,00 23
15:10 3,7 1,7 16,3 WSW 20,9 983,0 87 2,30 90
15:15 3,9 2,1 32,2 SSE 32,2 982,6 88 2,30 25
15:20 4,3 2,5 22,7 West 32,2 982,3 88 2,00 16
Daily Summary for Tuesday 25 February 2020
Time Temp. ( °C ) Dew pt. ( °C ) Wind ( km/h ) from Gust ( km/h ) Pressure ( hPa ) Humid.( % ) Rainrate ( cm ) Solar ( W/m2 )
High6,6 3,4 35,2 SW ( 937/3201 ) 45,1 997,2 92 3,00 455
Average4,4 2,2 17,3 SW #54/185 28,5 988,9 86 2,10 123 #99/185
Low2,2 0,8 1,4   6,4 982,3 74 -  
Daily Tabular details for Tuesday 25 February 2020
Time Temp. ( °C ) Dew pt. ( °C ) Wind ( km/h ) from Gust ( km/h ) Pressure ( hPa ) Humid.( % ) Rainrate ( cm ) Solar ( W/m2 )
00:00 2,9 1,3 24,1 SE 30,6 997,2 89 - -
00:05 2,9 1,4 16,3 ENE 19,3 996,8 90 - -
00:10 3,0 1,4 16,3 SE 24,1 996,8 89 - -
00:15 3,0 1,4 22,7 SSE 32,2 996,5 89 0,30 -
00:20 3,0 1,4 9,7 SSE 27,4 996,5 89 0,30 -
00:25 3,1 1,5 11,1 ESE 30,6 996,2 89 0,30 -
00:30 3,1 1,5 13,0 SSE 24,1 995,8 89 0,30 -
00:35 3,0 1,4 28,8 SE 40,2 995,5 89 0,30 -
00:40 3,0 1,4 6,4 ESE 32,2 995,5 89 0,50 -
00:45 3,0 1,4 13,0 SE 29,0 995,5 89 0,50 -
00:50 3,0 1,4 14,3 SE 41,8 995,5 89 0,50 -
00:55 3,0 1,4 20,9 SE 29,0 995,5 89 0,50 -
01:00 3,1 1,5 17,7 SSE 25,7 995,5 89 0,50 -
01:05 3,1 1,5 9,7 East 38,6 995,1 89 0,50 -
01:10 3,0 1,4 22,7 SSE 33,8 994,8 89 0,50 -
01:15 3,0 1,4 17,7 SE 37,0 994,5 89 0,50 -
01:20 2,9 1,3 14,3 SE 27,4 994,5 89 0,80 -
01:25 2,9 1,3 16,3 ESE 33,8 994,1 89 1,00 -
01:30 2,9 1,4 14,3 SE 45,1 993,8 90 1,30 -
01:35 2,8 1,3 14,3 ESE 24,1 993,8 90 1,30 -
01:40 2,8 1,3 19,5 SSE 20,9 993,5 90 1,50 -
01:45 2,8 1,3 28,8 SSE 43,4 993,5 90 1,50 -
01:50 2,7 1,2 17,7 SE 35,4 993,1 90 1,50 -
01:55 2,7 1,2 16,3 SE 32,2 993,1 90 1,80 -
02:00 2,6 1,1 14,3 SSE 35,4 993,1 90 2,00 -
02:05 2,5 1,0 35,2 SSE 38,6 993,1 90 2,00 -
02:10 2,5 1,0 6,4 ESE 22,5 993,1 90 2,00 -
02:15 2,5 1,0 13,0 SE 29,0 992,4 90 2,30 -
02:20 2,4 0,9 6,4 East 27,4 992,8 90 2,30 -
02:25 2,5 1,0 16,3 SE 29,0 992,8 90 2,30 -
02:30 2,4 0,9 32,0 SE 43,4 992,4 90 2,30 -
02:35 2,3 0,8 20,9 South 38,6 992,4 90 2,50 -
02:40 2,3 0,8 11,1 South 40,2 992,1 90 2,80 -
02:45 2,2 0,9 16,3 SE 30,6 992,1 91 2,80 -
02:50 2,3 0,8 11,1 SE 40,2 991,4 90 3,00 -
02:55 2,3 0,8 27,4 SSE 32,2 991,4 90 3,00 -
03:00 2,3 1,0 16,3 SE 41,8 991,4 91 3,00 -
03:05 2,4 1,1 6,4 SE 35,4 991,4 91 2,80 -
03:10 2,5 1,2 6,4 SE 25,7 991,1 91 2,80 -
03:15 2,5 1,2 7,9 SSE 22,5 991,1 91 2,50 -
03:20 2,6 1,3 25,9 SE 40,2 990,7 91 2,50 -
03:25 2,7 1,4 22,7 South 25,7 990,7 91 2,50 -
03:30 2,8 1,5 13,0 SE 30,6 990,4 91 2,30 -
03:35 2,9 1,6 19,5 SSE 27,4 990,4 91 2,00 -
03:40 3,0 1,7 17,7 SE 24,1 989,7 91 1,50 -
03:45 3,1 1,9 14,3 SSW 29,0 989,7 92 1,50 -
03:50 3,2 1,9 9,7 SW 12,9 990,1 91 1,30 -
03:55 3,2 1,9 9,7 SW 12,9 990,1 91 1,00 -
04:00 3,2 1,9 4,7 SSW 6,4 989,7 91 0,80 -
04:05 3,2 1,9 7,9 SSE 14,5 989,7 91 0,80 -
04:10 3,3 2,1 11,1 SSE 17,7 989,4 92 0,80 -
04:15 3,4 2,2 14,3 SSE 19,3 989,1 92 0,50 -
04:20 3,4 2,2 9,7 SSE 16,1 989,1 92 0,50 -
04:25 3,6 2,4 1,4 South 9,7 989,1 92 0,30 -
04:30 3,6 2,4 11,1 South 12,9 989,1 92 0,30 -
04:35 3,7 2,5 7,9 SSW 17,7 989,1 92 0,30 -
04:40 3,7 2,5 7,9 SW 16,1 988,7 92 0,30 -
04:45 3,8 2,6 11,1 SW 17,7 988,7 92 0,30 -
04:50 4,0 2,8 13,0 SSW 22,5 988,7 92 0,30 -
04:55 4,1 2,9 11,1 SSW 20,9 988,4 92 0,30 -
05:00 4,2 3,0 11,1 SSW 17,7 988,4 92 0,30 -
05:05 4,2 3,0 13,0 SSW 22,5 988,4 92 0,30 -
05:10 4,3 3,1 9,7 SW 20,9 988,4 92 0,30 -
05:15 4,3 3,1 14,3 SSW 19,3 988,4 92 0,30 -
05:20 4,3 3,1 14,3 SW 25,7 988,4 92 0,30 -
05:25 4,4 3,2 13,0 SSW 25,7 988,4 92 0,30 -
05:30 4,4 3,2 16,3 WSW 29,0 988,4 92 0,30 -
05:35 4,4 3,2 24,1 WSW 24,1 988,7 92 - -
05:40 4,6 3,4 19,5 SW 20,9 988,4 92 - -
05:45 4,6 3,4 20,9 SW 33,8 988,4 92 - -
05:50 4,6 3,4 24,1 SW 25,7 988,4 92 - -
05:55 4,6 3,4 19,5 SW 29,0 988,4 92 - -
06:00 4,6 3,3 27,4 WSW 27,4 988,4 91 - -
06:05 4,6 3,3 27,4 SW 33,8 988,4 91 - -
06:10 4,6 3,3 22,7 WSW 32,2 988,4 91 - -
06:15 4,6 3,3 14,3 WSW 24,1 988,4 91 - -
06:20 4,6 3,3 11,1 SW 27,4 988,4 91 - -
06:25 4,5 3,2 20,9 SW 30,6 988,4 91 - -
06:30 4,6 3,1 17,7 SSW 22,5 988,4 90 - -
06:35 4,6 3,1 17,7 SSW 27,4 988,4 90 - -
06:40 4,6 3,1 24,1 WSW 27,4 988,4 90 - -
06:45 4,5 3,0 11,1 WSW 33,8 988,4 90 - -
06:50 4,5 2,8 22,7 WSW 27,4 988,7 89 - -
06:55 4,4 2,7 16,3 SW 20,9 988,4 89 - -
07:00 4,4 2,7 9,7 WSW 30,6 988,7 89 - -
07:05 4,4 2,7 24,1 WSW 30,6 988,7 89 - -
07:10 4,3 2,5 16,3 WSW 29,0 988,7 88 - 5
07:15 4,3 2,5 16,3 West 33,8 988,7 88 - 5
07:20 4,4 2,6 14,3 SW 32,2 988,7 88 - 7
07:25 4,4 2,6 16,3 SW 24,1 988,7 88 - 7
07:30 4,4 2,6 14,3 WSW 25,7 988,4 88 - 11
07:35 4,4 2,6 27,4 SW 30,6 988,7 88 - 16
07:40 4,4 2,4 27,4 SSW 27,4 988,7 87 - 19
07:45 4,4 2,4 13,0 WSW 35,4 988,7 87 - 33
07:50 4,5 2,4 19,5 WSW 33,8 988,7 86 - 40
07:55 4,6 2,5 16,3 SW 35,4 988,7 86 - 30
08:00 4,6 2,5 7,9 SW 32,2 988,4 86 - 39
08:05 4,6 2,3 16,3 West 25,7 988,4 85 - 37
08:10 4,6 2,3 25,9 WSW 27,4 988,4 85 - 49
08:15 4,6 2,3 16,3 SW 25,7 988,4 85 - 54
08:20 4,6 2,3 13,0 WSW 25,7 988,4 85 - 67
08:25 4,6 2,3 11,1 SW 27,4 988,4 85 - 56
08:30 4,6 2,3 14,3 WSW 25,7 988,4 85 - 72
08:35 4,7 2,4 19,5 West 20,9 988,4 85 - 113
08:40 4,9 2,6 9,7 SW 22,5 988,4 85 - 148
08:45 4,9 2,4 19,5 SW 30,6 988,4 84 - 81
08:50 4,9 2,4 14,3 SW 24,1 988,4 84 - 127
08:55 4,9 2,4 20,9 SSW 30,6 988,4 84 - 72
09:00 4,9 2,4 20,9 SSW 25,7 988,4 84 - 114
09:05 4,9 2,3 20,9 SW 29,0 988,4 83 - 79
09:10 4,9 2,3 16,3 West 27,4 988,4 83 - 86
09:15 4,9 2,3 9,7 WSW 24,1 988,0 83 - 77
09:20 4,9 2,3 24,1 SSW 29,0 988,0 83 - 62
09:25 4,9 2,3 13,0 WSW 24,1 988,4 83 - 46
09:30 4,9 2,3 14,3 WSW 29,0 988,0 83 - 76
09:35 5,1 2,5 14,3 SSW 24,1 988,0 83 - 206
09:40 5,2 2,2 19,5 WSW 27,4 988,0 81 - 269
09:45 5,4 2,4 11,1 SSW 25,7 988,0 81 - 135
09:50 5,5 2,5 30,6 WSW 30,6 988,0 81 - 128
09:55 5,4 2,4 13,0 SW 24,1 987,7 81 - 127
10:00 5,4 2,4 19,5 SW 33,8 988,0 81 - 135
10:05 5,5 2,5 30,6 SW 30,6 988,0 81 - 269
10:10 5,6 2,4 19,5 WSW 30,6 987,7 80 - 213
10:15 5,6 2,4 20,9 WSW 27,4 987,7 80 - 186
10:20 5,6 2,4 19,5 SW 27,4 987,7 80 - 186
10:25 5,6 2,6 24,1 South 30,6 987,7 81 - 167
10:30 5,5 2,3 22,7 SW 27,4 987,7 80 - 192
10:35 5,5 2,3 20,9 WSW 35,4 987,7 80 - 91
10:40 5,3 2,1 24,1 SW 37,0 987,4 80 - 123
10:45 5,3 2,1 22,7 SW 32,2 987,4 80 - 167
10:50 5,4 2,2 30,6 SW 32,2 987,4 80 - 125
10:55 5,6 2,2 16,3 SSW 25,7 987,4 79 - 190
11:00 5,9 2,4 28,8 WSW 43,4 987,4 78 - 455
11:05 5,7 2,2 25,9 WSW 33,8 987,4 78 - 142
11:10 5,6 2,1 20,9 WSW 41,8 987,4 78 - 160
11:15 5,8 2,3 17,7 WSW 30,6 987,4 78 - 329
11:20 6,2 2,5 19,5 WSW 24,1 987,4 77 - 193
11:25 6,1 2,4 22,7 WSW 27,4 987,4 77 - 130
11:30 5,9 2,2 32,0 WSW 41,8 987,4 77 - 199
11:35 5,8 2,3 24,1 WSW 32,2 987,4 78 - 243
11:40 5,8 2,3 9,7 SW 40,2 987,4 78 - 123
11:45 5,7 2,5 16,3 SW 29,0 987,0 80 - 134
11:50 5,4 2,6 9,7 SW 32,2 987,0 82 - 174
11:55 5,4 2,7 11,1 SSW 17,7 987,0 83 - 139
12:00 5,6 2,9 24,1 SSW 24,1 987,0 83 - 262
12:05 5,9 3,1 13,0 WSW 24,1 987,0 82 - 422
12:10 6,1 2,6 22,7 SW 30,6 987,0 78 - 127
12:15 6,1 2,4 13,0 SW 30,6 987,0 77 - 183
12:20 6,3 2,4 27,4 SSW 40,2 986,7 76 - 357
12:25 6,6 2,3 14,3 SSW 25,7 986,7 74 - 158
12:30 6,4 2,3 28,8 SW 29,0 986,7 75 - 127
12:35 6,1 2,2 17,7 SSW 40,2 986,7 76 - 98
12:40 5,6 2,2 25,9 SW 37,0 986,3 79 - 63
12:45 5,2 2,4 11,1 SW 27,4 986,3 82 0,30 120
12:50 4,9 2,4 14,3 WSW 20,9 986,3 84 0,30 141
12:55 4,9 2,4 11,1 SW 24,1 986,3 84 0,30 102
13:00 5,1 2,6 9,7 SW 16,1 986,0 84 0,30 144
13:05 5,3 2,8 13,0 SW 19,3 986,0 84 0,30 123
13:10 5,3 2,6 9,7 SW 14,5 985,7 83 0,30 26
13:15 5,3 2,6 24,1 West 32,2 986,0 83 0,50 39
13:20 5,1 2,6 9,7 SSW 24,1 985,7 84 0,50 114
13:25 5,4 2,9 9,7 SSW 20,9 985,7 84 0,50 209
13:30 5,6 2,8 20,9 South 40,2 985,3 82 0,50 84
13:35 5,6 2,6 33,8 SW 45,1 985,3 81 0,50 46
13:40 5,1 2,5 13,0 SW 25,7 985,3 83 0,80 288
13:45 5,3 3,0 22,7 SSW 38,6 985,0 85 0,50 218
13:50 5,7 3,2 11,1 SW 33,8 985,0 84 0,50 378
13:55 5,8 3,0 19,5 SW 20,9 984,6 82 0,50 199
14:00 5,8 2,8 25,9 SW 25,7 984,6 81 0,50 158
14:05 5,8 2,8 27,4 SSW 35,4 984,6 81 0,50 76
14:10 5,5 2,5 14,3 WSW 32,2 984,6 81 0,50 44
14:15 5,2 2,5 17,7 SW 30,6 984,6 83 0,50 30
14:20 4,9 2,4 16,3 West 25,7 984,6 84 0,50 88
14:25 4,9 2,9 20,9 SSW 27,4 984,6 87 0,80 153
14:30 4,9 2,8 19,5 South 29,0 984,3 86 0,80 181
14:35 5,2 3,1 13,0 SSW 30,6 984,0 86 0,50 125
14:40 5,2 2,9 24,1 SW 33,8 984,0 85 0,50 76
14:45 5,1 2,8 22,7 South 27,4 984,0 85 0,50 26
14:50 4,9 2,6 9,7 SSW 33,8 983,6 85 0,50 35
14:55 4,8 2,5 24,1 SW 32,2 983,6 85 0,50 49
15:00 4,5 2,4 7,9 SW 24,1 983,3 86 1,30 14
15:05 4,2 2,1 14,3 West 20,9 983,3 86 2,00 23
15:10 3,7 1,7 16,3 WSW 20,9 983,0 87 2,30 90
15:15 3,9 2,1 32,2 SSE 32,2 982,6 88 2,30 25
15:20 4,3 2,5 22,7 West 32,2 982,3 88 2,00 16

Download your copy of this data-set  here

Our weather-data as stored at Weather Underground. Script developed by Jim McMurry. Adapted for the template by Leuven-Template.eu

You find our weather info also at:

European Weather Network

Weather Underground

European Weather Network

Equipment we use:

Weather-station
Davis VP2

Weather-program
Weather Display

Davis VP2

Weather Display



Hej. Vi har købt ny vejrstation, og er ved at bygge en helt ny vejrside.
Kom snart tilbage og følg udviklingen.
Du kan også komme med kommentarer eller evt. ønsker via "Kontakt" i bunden.